User: anonymous   Login
Location: Clinton NY
(43.0598°N, 75.3602°W)
Time: 19:56:03
(UTC-04:00)
Language:

Iridium 42 - Orbit

View from above orbital plane
View from above orbital plane
View from above satellite
View from above satellite

Ground track
Ground track

The orbit data is extracted from the following two-line orbital elements,

1 25077U 97077A   17082.95050888 +.00000117 +00000-0 +34459-4 0  9990
2 25077 086.3953 057.5431 0002090 091.2664 268.8772 14.34533155009969
Epoch (UTC): 23 March 2017 22:48:43
Eccentricity: 0.0002090
inclination: 86.3953°
perigee height: 775 km
apogee height: 778 km
right ascension of ascending node: 57.5431°
argument of perigee: 91.2664°
revolutions per day: 14.34533155
mean anomaly at epoch: 268.8772°
orbit number at epoch: 996

The dashed part of the orbit path shows where the satellite is in the earth's shadow,  

DLR